Weather History for Gary, IN

Change the Weather History Date:

Wednesday, September 4, 2013

  Actual Average Record
Temperature  
Mean Temperature 68 °F -  
Max Temperature 83 °F 78 °F 98 °F (1953)
Min Temperature 53 °F 60 °F 32 °F (1997)
Cooling Degree Days 4    
Growing Degree Days 18 (Base 50)    
Moisture  
Dew Point 56 °F    
Average Humidity 76    
Maximum Humidity 94    
Minimum Humidity 32    
Precipitation  
Precipitation 0.00 in - - ()
Sea Level Pressure  
Sea Level Pressure 30.11 in    
Wind  
Wind Speed 3 mph (WSW)    
Max Wind Speed 12 mph    
Max Gust Speed -    
Visibility 11 miles    
Events      
Averages and records for this station are not official NWS values.
T = Trace of Precipitation, MM = Missing Value Source: NWS Daily Summary

Daily Weather History Graph

Daily Weather History Graph

Search for Another Location

Airport:

Trip Planner

Search our weather history database for the weather conditions in past years. The results will help you decide how hot, cold, wet, or windy it might be!

Date:

Astronomy

Sep. 04, 2013 Rise Set
Actual Time 6:18 AM CDT 7:17 PM CDT
Civil Twilight 5:50 AM CDT 7:45 PM CDT
Nautical Twilight 5:16 AM CDT 8:19 PM CDT
Astronomical Twilight 4:41 AM CDT 8:54 PM CDT
Moon 5:30 AM CDT (9/4) 6:36 PM CDT (9/4)
Length of Visible Light 13h 55m
Length of Day
12h 58m
Waning Crescent, 1% of the Moon is Illuminated
Sep 4
Waning Crescent
Sep 5
New
Sep 12
First Quarter
Sep 19
Full
Sep 26
Last Quarter

Hourly Weather History & Observations

Time (CDT) Temp. Heat Index Dew Point Humidity Pressure Visibility Wind Dir Wind Speed Gust Speed Precip Events Conditions
12:15 AM 56.1 °F - 53.4 °F 91% 30.06 in 10.0 mi South 3.5 mph - N/A   Clear
12:35 AM 57.4 °F - 55.0 °F 92% 30.07 in 10.0 mi Calm Calm - N/A   Clear
12:55 AM 60.3 °F - 57.9 °F 92% 30.07 in 10.0 mi Calm Calm - N/A   Clear
1:15 AM 57.6 °F - 54.1 °F 88% 30.07 in 10.0 mi Calm Calm - N/A   Clear
1:35 AM 56.3 °F - 53.6 °F 91% 30.08 in 10.0 mi Calm Calm - N/A   Clear
1:55 AM 53.8 °F - 51.3 °F 91% 30.08 in 10.0 mi Calm Calm - N/A   Clear
2:15 AM 54.5 °F - 52.2 °F 92% 30.08 in 7.0 mi South 3.5 mph - N/A   Clear
2:35 AM 56.1 °F - 54.0 °F 92% 30.09 in 10.0 mi Calm Calm - N/A   Clear
2:55 AM 57.0 °F - 54.9 °F 92% 30.09 in 10.0 mi Calm Calm - N/A   Clear
3:15 AM 54.9 °F - 52.7 °F 92% 30.09 in 10.0 mi Calm Calm - N/A   Clear
3:35 AM 55.9 °F - 54.0 °F 93% 30.09 in 10.0 mi Calm Calm - N/A   Clear
3:55 AM 57.0 °F - 54.1 °F 90% 30.10 in 10.0 mi Calm Calm - N/A   Clear
4:15 AM 55.2 °F - 52.7 °F 91% 30.10 in 10.0 mi Calm Calm - N/A   Clear
4:35 AM 54.0 °F - 51.3 °F 91% 30.10 in 5.0 mi Calm Calm - N/A   Clear
4:45 AM 53.6 °F - 51.8 °F 94% 30.10 in 7.0 mi WSW 6.9 mph - N/A   Clear
5:45 AM 57.2 °F - 55.4 °F 94% 30.11 in 7.0 mi SW 8.1 mph - N/A   Clear
6:45 AM 59.0 °F - 55.4 °F 88% 30.13 in 15.0 mi WSW 5.8 mph - N/A   Clear
7:45 AM 62.6 °F - 57.2 °F 82% 30.13 in 15.0 mi WSW 8.1 mph - N/A   Clear
8:45 AM 68.0 °F - 59.0 °F 73% 30.14 in 15.0 mi WSW 8.1 mph - N/A   Clear
9:45 AM 73.4 °F - 57.2 °F 57% 30.14 in 15.0 mi West 8.1 mph - N/A   Clear
10:45 AM 73.4 °F - 57.2 °F 57% 30.15 in 15.0 mi West 11.5 mph - N/A   Scattered Clouds
11:45 AM 78.8 °F - 55.4 °F 44% 30.14 in 15.0 mi WSW 11.5 mph - N/A   Partly Cloudy
12:45 PM 80.6 °F 80.3 °F 53.6 °F 39% 30.12 in 15.0 mi West 9.2 mph - N/A   Scattered Clouds
1:45 PM 80.6 °F - 51.8 °F 37% 30.12 in 15.0 mi West 11.5 mph - N/A   Mostly Cloudy
2:45 PM 82.4 °F - 50.0 °F 32% 30.11 in 15.0 mi West 9.2 mph - N/A   Mostly Cloudy
3:45 PM 84.2 °F - 51.8 °F 33% 30.10 in 15.0 mi West 8.1 mph - N/A   Mostly Cloudy
4:45 PM 84.2 °F - 51.8 °F 33% 30.09 in 15.0 mi West 9.2 mph - N/A   Mostly Cloudy
5:45 PM 82.4 °F 81.4 °F 53.6 °F 37% 30.08 in 15.0 mi West 9.2 mph - N/A   Scattered Clouds
6:45 PM 78.8 °F - 55.4 °F 44% 30.08 in 15.0 mi West 6.9 mph - N/A   Scattered Clouds
7:45 PM 75.2 °F - 57.2 °F 53% 30.10 in 15.0 mi WSW 6.9 mph - N/A   Scattered Clouds
8:45 PM 66.2 °F - 60.8 °F 83% 30.11 in 10.0 mi West 6.9 mph - N/A   Scattered Clouds
9:15 PM 65.5 °F - 60.8 °F 85% 30.12 in 10.0 mi Calm Calm - N/A   Clear
9:35 PM 65.1 °F - 60.1 °F 84% 30.12 in 10.0 mi Calm Calm - N/A   Clear
9:45 PM 64.4 °F - 60.8 °F 88% 30.12 in 10.0 mi Calm Calm - N/A   Scattered Clouds
9:55 PM 63.9 °F - 59.9 °F 87% 30.12 in 10.0 mi Calm Calm - N/A   Clear
10:15 PM 63.5 °F - 59.5 °F 87% 30.12 in 10.0 mi Calm Calm - N/A   Clear
10:35 PM 63.7 °F - 59.5 °F 86% 30.12 in 10.0 mi Calm Calm - N/A   Clear
10:55 PM 64.0 °F - 60.1 °F 87% 30.12 in 10.0 mi Calm Calm - N/A   Clear
11:15 PM 61.7 °F - 58.3 °F 89% 30.12 in 10.0 mi Calm Calm - N/A   Clear
11:35 PM 61.9 °F - 58.8 °F 90% 30.12 in 10.0 mi Calm Calm - N/A   Clear
11:55 PM 62.1 °F - 59.4 °F 91% 30.12 in 10.0 mi Calm Calm - N/A   Clear